Location: Matera
(40.6670°N, 16.6000°E)
Time: 05:06:21
(UTC+01:00)

ISS - Pass Details

Date: 24 January 2019
Orbit: 403 x 411 km, 51.6° (Epoch: 17 February)

Event Time Altitude Azimuth Distance (km) Brightness Sun altitude
Rises 17:41:13 0° 222° (SW) 2,316 1.2 -7.9°
Reaches altitude 10° 17:43:19 10° 217° (SW) 1,462 -0.1 -8.3°
Maximum altitude 17:46:31 54° 140° (SE) 504 -3.5 -8.9°
Enters shadow 17:49:18 13° 63° (ENE) 1,296 -1.9 -9.4°
